Tracking 18630 objects as of 27-May-2017
HD Live streaming from Space Station
objects crossing your sky now

CZ-2D DEB

Track CZ-2D DEB now!
10-day predictions


NORAD ID: 28742
Int'l Code: 2005-024F
Perigee: 520.4 km
Apogee: 681.0 km
Inclination: 97.7 °
Period: 96.6 minutes
Semi major axis: 6971 km
RCS: 0.0146 m2 (small)
Launch date: July 5, 2005
Source: People's Republic of China (PRC)
Launch site: Jiuquan Satellite Launch Center, China (JSC)

Note: This is SATELLITE DEBRIS
Your satellite tracking list
Your tracking list is empty





NASA's NSSDC Master Catalog

Two Line Element Set (TLE):
1 28742U 05024F   17145.37988171 +.00001728 +00000-0 +15817-3 0  9999
2 28742 097.6781 305.1173 0115198 294.9890 063.9399 14.91393678633685
Source of the keplerian elements: AFSPC